Notices

What’s New in latest Release from January 14th 2021:

·       In Historical Hourly Data Report, users can switch between Local Standard Time (LST) and Universal Time Coordinates (UTC) time.

·       In Historical Hourly Data Report, we have an addition of a new column to display hourly precipitation data for the stations where the data are available, from 2001 onwards.

·       Expanded the Search Options of the Canadian Historical Weather Radar, users now able to select 24 hours (1 image every hour) image viewing duration.

Please note that the IDF dataset is available through this link: Intensity-Duration-Frequency (IDF) Files .

Hourly Data Report for July 10, 2020

OTTAWA INTL A
ONTARIO
Current Station Operator: NAVCAN

45°19'00.000" N
75°40'00.000" W
114.90 m
6106001
71628
YOW

Download Data

Hourly Data (July 2020)
Hourly Data Report for July 10, 2020
TIME
LST
Temp Definition
°C
Dew Point Definition
°C
Rel Hum Definition
%
Precip. Amount Definition
mm

Wind Dir Definition
10's deg

Wind Spd Definition
km/h
Visibility Definition
km
Stn Press Definition
kPa
Hmdx Definition


Wind Chill Definition


Weather Definition


00:00 22.7 19.2 81   13 4 24.1 99.90 30   LegendNANA
01:00 22.1 19.0 82   8 4 24.1 99.93 29   Mainly Clear
02:00 22.3 19.0 81   13 7 24.1 99.94 29   LegendNANA
03:00 22.8 18.9 79   10 7 24.1 99.93 29   LegendNANA
04:00 22.2 19.4 84   14 9 24.1 99.94 29   Mainly Clear
05:00 21.2 19.4 89   6 8 24.1 99.98 28   LegendNANA
06:00 23.8 20.2 80   11 7 24.1 100.00 32   LegendNANA
07:00 25.7 21.0 75   16 11 24.1 99.99 34   Clear
08:00 28.2 21.7 67   19 8 24.1 99.97 37   LegendNANA
09:00 30.2 22.2 62   14 12 24.1 99.94 40   LegendNANA
10:00 32.0 21.7 54   14 13 24.1 99.88 41   Clear
11:00 33.5 20.9 47   18 14 24.1 99.86 42   LegendNANA
12:00 34.8 20.4 42   19 14 24.1 99.81 43   LegendNANA
13:00 34.7 19.7 41   18 20 24.1 99.75 42   Mainly Clear
14:00 34.2 20.1 43   17 12 24.1 99.65 42   LegendNANA
15:00 36.4 19.1 36   19 16 24.1 99.57 43   LegendNANA
16:00 35.4 18.6 36   16 16 24.1 99.51 42   Mostly Cloudy
17:00 33.2 19.6 44   18 22 24.1 99.48 40   LegendNANA
18:00 31.5 20.3 51   18 11 24.1 99.44 39   LegendNANA
19:00 30.1 21.3 59   14 7 24.1 99.45 39   Mostly Cloudy
20:00 27.5 19.7 62   15 8 24.1 99.46 35   LegendNANA
21:00 28.0 18.1 54   18 11 24.1 99.49 34   LegendNANA
22:00 25.6 18.4 64   14 9 24.1 99.44 32   Mostly Cloudy
23:00 25.2 18.6 66   14 8 24.1 99.41 32   LegendNANA

Notes on Data Quality.

Legend

  • E = Estimated
  • M = Missing
  • NA = Not Available*
  • [empty] = Indicates an unobserved value
Date modified: